ONEWEB-0193 (48238 NORAD) Tracking and Keplerian Element Data

This shows tracking and keplerian element data for the satellite.

Feedback or suggestion? Click here.




ElementValue
Catalog48238
NameONEWEB-0193
Epoch Orbit178
Epoch Day136.75001157
Epoch Year2021
RAAN305.7748
Inclination87.4167
Eccentricity0.0008581
Argument of Perigee166.1552
Mean Anonmoly335.1123
Mean Motion15.2908532
Decay Rate-0.01405028
L11 48238U 21031AE 21136.75001157 -.01405028 00000-0 -54856-1 0 9992
L22 48238 87.4167 305.7748 0008581 166.1552 335.1123 15.29085320 1781

Live tracking and technical data element details for ONEWEB-0193 (NORAD 48238). ONEWEB-0193 can be tracked NOW for your location showing map with azimuth and elevation plus other details from your city location.

Track the satellite on the map from your city or location and see movement details for azimuth, elevation, latitude, longitude, range, height, and movement on the map or in text.







IsCatalogInMostPopularTable: catalog: 48238, numindb: 4
Update: records affected: 1



GetName: 48238 ONEWEB-0193

Hit Count: updated at: Mon, 17 May 2021 16:18:28 GMT